This demonstration page uses our WeatherBlox Daily Observations layout. Learn more.

Left ArrowRight Arrow

Hourly Observations for January 21, 2019

Temp ( °F °C ) Dew Point ( °F °C ) Humidity (%) Winds ( mph kmh ) Pressure ( in mb ) Visibility ( mi km ) Precip ( " mm )
12:53 am 00:53 Clear 12 -11 N/A N/A N 6 9 30.42 1030 10 16 0.00 0.00
1:53 am 01:53 Clear 12 -11 N/A N/A NNE 5 7 30.42 1030 10 16 0.00 0.00
2:53 am 02:53 Clear 10 -12 N/A N/A ENE 3 6 30.42 1030 10 16 0.00 0.00
3:53 am 03:53 Clear 10 -12 N/A N/A Calm 30.42 1030 10 16 0.00 0.00
4:53 am 04:53 Clear 10 -12 N/A N/A Calm 30.43 1031 10 16 0.00 0.00
5:53 am 05:53 Clear 10 -12 N/A N/A Calm 30.45 1031 10 16 0.00 0.00
6:53 am 06:53 Clear 10 -12 N/A N/A Calm 30.47 1032 10 16 0.00 0.00
7:53 am 07:53 Sunny 9 -13 N/A N/A NE 5 7 30.50 1033 10 16 0.00 0.00
8:53 am 08:53 Sunny 10 -12 N/A N/A ESE 5 7 30.54 1034 10 16 0.00 0.00
9:53 am 09:53 Sunny 14 -10 N/A N/A ESE 5 7 30.59 1036 10 16 0.00 0.00
10:53 am 10:53 Sunny 16 -9 N/A N/A VRB 3 6 30.59 1036 10 16 0.00 0.00
11:53 am 11:53 Sunny 18 -8 N/A N/A VRB 5 7 30.59 1036 10 16 0.00 0.00
12:53 pm 12:53 Sunny 19 -7 N/A N/A VRB 3 6 30.56 1035 10 16 0.00 0.00
1:53 pm 13:53 Sunny 21 -6 N/A N/A E 7 11 30.54 1034 10 16 0.00 0.00
2:53 pm 14:53 Sunny 23 -5 N/A N/A Calm 30.52 1034 10 16 0.00 0.00
3:53 pm 15:53 Sunny 25 -4 N/A N/A VRB 3 6 30.52 1034 10 16 0.00 0.00
4:53 pm 16:53 Sunny 25 -4 N/A N/A ENE 6 9 30.51 1033 10 16 0.00 0.00
5:53 pm 17:53 Clear 23 -5 N/A N/A ENE 3 6 30.51 1033 10 16 0.00 0.00
6:53 pm 18:53 Clear 21 -6 N/A N/A ENE 3 6 30.51 1033 10 16 0.00 0.00
7:53 pm 19:53 Clear 21 -6 N/A N/A ENE 6 9 30.51 1033 10 16 0.00 0.00
8:53 pm 20:53 Clear 21 -6 N/A N/A ENE 5 7 30.51 1033 10 16 0.00 0.00
9:53 pm 21:53 Clear 21 -6 N/A N/A E 6 9 30.50 1033 10 16 0.00 0.00
10:53 pm 22:53 Clear 21 -6 N/A N/A E 5 7 30.48 1032 10 16 0.00 0.00
11:53 pm 23:53 Clear 21 -6.1 21 -6.1 100 100 E 8 13 30.47 1032 10 16 0.00 0.00

Powered by Vaisala Xweather